Temp
10 10 10 10 10 10 10 10 10 9 9 9 8 8 8 8 8 8 8 8 7 7 7 7 7 6 7 7 7 7 7 7 7 7 7 8 8 8 8 8 8 8 8 8 8 8 8 8 8 7 7 7 7 7 8 8 8 9 9 9 9 10 10 10 10 10 11 11 12
11 11 11 11 10 10 10 10 10 9 9 9 8 8 8 8 8 8 8 8 7 7 7 7 6 6 6 7 7 7 7 7 6 7 7 8 8 8 8 9 9 9 8 8 8 8 8 7 7 7 7 6 6 6 7 8 9 9 9 9 9 10 10 10 10 10 10 10 11
11 11 11 11 11 10 10 10 10 9 9 8 8 8 8 8 8 8 8 8 8 7 7 7 6 6 6 7 7 7 7 6 6 6 7 7 8 8 8 8 9 9 9 8 8 8 7 7 7 7 7 6 6 6 7 7 8 8 9 9 9 9 9 9 10 10 10 10 10
11 11 11 11 10 10 10 10 9 9 9 8 8 8 8 8 8 8 8 8 8 7 7 7 6 6 6 7 7 7 7 6 6 6 7 7 7 8 8 8 9 9 9 9 8 8 8 7 7 7 7 7 6 6 7 7 8 8 8 9 9 9 9 9 10 10 10 10 10
11 11 11 11 10 10 10 9 9 9 9 8 8 8 8 8 8 8 8 8 8 7 7 7 7 7 7 7 7 7 7 6 6 6 6 7 7 7 8 8 8 9 9 9 8 8 8 7 7 7 7 6 6 6 7 7 7 8 8 8 9 9 9 9 9 10 10 10 10
11 11 11 11 10 10 9 9 9 9 8 8 8 8 8 8 8 8 8 8 8 8 7 7 7 7 7 7 7 7 7 6 6 6 6 6 7 7 8 8 8 8 8 8 8 8 8 7 6 7 7 6 6 6 7 7 7 7 7 8 8 9 9 9 9 10 10 10 10
11 11 11 11 10 10 9 9 9 8 8 8 8 9 9 9 8 8 8 8 8 8 8 8 8 7 7 7 7 7 6 6 6 6 6 6 6 7 7 7 8 8 8 8 8 8 7 6 6 6 6 6 6 6 7 7 7 7 7 7 7 8 8 9 9 9 10 10 10
11 11 11 10 10 10 9 9 9 8 8 8 8 9 9 9 9 9 9 9 9 9 8 8 8 8 8 7 7 7 6 6 6 6 6 6 6 6 6 7 7 7 7 7 7 7 7 6 6 5 5 5 6 6 7 7 7 7 6 6 7 7 8 8 9 9 9 10 10
11 11 11 10 10 10 9 9 8 8 8 8 8 8 8 8 9 9 9 9 9 9 9 8 8 8 8 8 7 7 6 6 6 6 6 6 6 6 6 6 6 7 7 6 6 6 6 5 4 4 4 5 6 6 7 7 7 6 6 6 6 7 8 8 8 8 9 9 10
11 10 10 10 10 10 9 9 8 8 8 8 8 8 8 8 8 9 9 9 9 9 9 9 8 8 8 8 8 7 7 6 6 6 6 6 6 6 6 6 6 6 6 6 5 5 5 4 4 4 4 5 6 6 7 7 7 6 6 6 6 7 7 8 8 8 8 9 9
10 10 10 10 10 9 9 9 8 8 8 8 8 8 8 8 8 8 9 9 9 9 9 9 9 8 8 8 8 8 7 7 6 6 6 6 6 6 5 5 5 6 6 6 5 5 5 4 4 5 5 5 5 6 6 6 6 6 6 6 6 6 7 8 8 8 8 8 9
10 10 10 9 9 9 9 9 8 8 8 7 7 7 7 8 8 8 8 8 9 9 9 9 8 8 8 8 8 8 7 7 6 6 6 6 6 6 5 5 5 5 5 5 5 5 5 5 4 5 5 5 5 5 5 6 6 6 6 6 6 6 6 7 7 8 8 8 8
9 9 9 9 9 9 9 9 8 8 8 7 7 7 7 8 8 8 8 8 8 9 9 9 8 8 8 8 8 8 7 7 7 6 6 6 6 5 5 5 5 5 5 5 5 5 5 5 5 4 4 4 4 5 5 5 5 5 5 5 6 6 6 6 6 7 7 8 8
9 9 9 9 9 9 9 9 9 8 8 8 8 7 7 7 7 7 7 8 8 8 8 8 8 8 8 8 8 8 7 7 7 6 6 6 6 5 5 5 5 5 5 5 5 5 5 5 5 4 4 4 4 4 4 4 4 4 4 4 5 5 5 5 5 6 7 7 8
8 8 9 9 9 9 9 9 9 8 8 8 8 7 7 7 7 7 7 7 7 8 8 8 8 8 8 8 8 7 7 7 7 6 6 6 6 6 5 5 5 5 5 5 5 5 5 5 5 4 4 4 4 4 4 4 4 4 4 4 4 5 5 5 5 5 5 6 7
8 8 8 8 8 9 9 8 8 8 8 8 7 7 7 7 7 7 7 7 7 7 7 8 8 8 8 7 7 7 7 7 7 6 6 6 6 6 5 5 5 5 5 5 5 5 5 5 5 4 4 4 4 4 4 4 4 4 4 4 4 4 4 5 5 4 5 5 5
8 8 8 8 8 8 8 8 8 8 7 7 7 7 7 7 7 7 7 7 7 7 7 7 7 7 7 7 7 7 7 7 7 6 6 6 6 6 6 5 5 5 5 5 5 5 5 5 5 4 4 4 4 4 4 4 4 4 4 4 4 4 5 5 5 5 5 4 5
9 9 9 9 8 8 8 8 7 7 7 7 7 7 7 7 7 7 7 7 7 7 7 7 7 7 7 7 7 7 7 7 7 7 6 6 6 6 6 6 6 5 5 5 5 5 5 5 5 4 4 3 3 3 3 4 4 4 4 4 4 4 5 5 5 5 5 5 5
9 9 9 8 8 8 8 7 7 7 7 7 7 7 7 7 7 7 7 7 7 7 7 7 7 7 7 7 7 7 7 7 7 7 6 6 6 6 6 6 6 6 5 5 5 5 5 5 5 4 4 4 3 3 3 3 4 3 3 4 4 4 4 5 5 5 5 5 5
8 8 8 8 8 8 8 7 7 7 7 7 7 7 7 7 7 7 7 7 7 7 7 7 7 7 7 7 7 7 7 7 7 7 6 6 6 6 6 6 6 6 6 5 5 5 5 5 5 5 4 4 4 4 3 3 4 4 4 3 3 4 4 4 5 5 5 5 5
8 8 8 7 7 7 7 7 7 7 7 7 7 7 7 7 7 7 7 7 7 7 7 7 7 7 7 7 7 7 7 7 7 7 6 6 6 6 6 6 6 6 6 6 5 5 5 5 5 5 5 4 4 4 4 4 4 4 4 4 4 4 4 4 4 4 5 5 5
7 7 7 7 7 7 7 7 7 7 7 7 7 7 7 7 7 7 7 7 7 7 7 7 7 7 7 7 7 7 7 7 7 7 7 6 6 6 6 6 6 6 5 6 5 5 5 5 5 5 5 5 4 4 4 4 4 4 4 4 4 4 4 4 4 4 4 4 5
6 6 6 6 6 6 6 6 6 6 7 7 7 7 7 7 7 7 7 7 7 7 7 7 7 7 7 7 7 7 7 7 7 7 7 7 6 6 6 6 5 5 5 5 5 5 5 5 5 5 5 4 4 4 4 4 4 4 4 4 4 4 4 4 4 4 4 4 5
6 6 6 6 6 6 6 6 6 6 6 6 6 6 6 7 7 7 7 7 7 7 7 7 7 7 7 7 7 7 7 7 7 7 7 7 6 6 6 6 5 5 5 5 5 5 5 5 5 5 4 4 4 4 3 3 3 4 4 4 4 4 4 5 5 5 4 4 4
5 5 5 6 6 6 6 6 6 6 6 6 6 6 6 6 6 6 6 6 6 6 6 6 7 7 7 7 7 7 7 7 7 7 7 7 7 6 6 6 5 5 5 5 5 5 5 5 4 4 4 4 4 4 3 3 3 3 4 4 4 4 4 4 5 5 4 4 4
5 5 5 5 5 5 6 6 6 6 6 6 6 6 6 6 6 6 6 6 6 6 6 6 6 6 6 6 6 6 6 6 6 7 7 7 7 7 6 6 6 5 5 5 5 5 5 4 4 4 4 4 4 4 4 4 4 3 3 3 4 4 4 4 4 4 4 4 4
5 5 5 5 5 5 5 5 5 6 6 6 6 6 6 6 6 6 6 6 6 6 6 6 6 6 6 6 6 6 6 6 6 6 6 6 7 6 6 6 6 5 5 5 5 5 5 4 4 4 4 3 3 3 4 4 3 3 3 3 3 4 4 4 4 4 4 4 4
5 5 5 5 5 5 5 5 5 5 5 6 6 6 6 6 6 6 6 6 6 6 6 6 6 6 6 6 6 6 6 6 6 6 6 6 6 6 6 6 6 6 5 5 5 5 4 4 4 4 4 3 3 3 3 3 3 3 3 3 3 3 4 4 4 4 4 4 4
4 4 4 4 4 5 5 5 5 5 5 5 5 6 6 6 6 6 6 6 6 6 6 6 6 6 6 6 6 6 5 5 5 5 6 6 6 6 6 6 6 6 5 5 5 5 4 4 4 4 4 3 3 3 3 2 2 2 2 3 3 3 3 4 4 4 4 4 4
4 4 4 4 4 4 4 4 4 5 5 5 5 5 5 5 5 5 5 5 5 5 5 5 5 6 6 6 6 6 6 5 5 5 5 5 6 6 6 6 6 5 5 5 5 5 4 4 4 4 4 3 3 3 2 2 2 2 2 2 2 3 3 3 4 4 4 4 3
3 3 3 3 3 3 3 4 4 4 4 4 4 5 5 5 5 5 5 5 5 5 5 5 5 5 5 6 6 6 6 6 5 5 5 5 5 6 6 6 6 5 5 5 5 5 4 4 4 4 3 3 3 3 2 2 1 2 2 2 2 2 2 3 3 4 4 4 3
3 3 3 3 3 3 3 3 3 3 3 4 4 4 4 4 4 4 5 5 5 5 5 5 5 5 5 5 5 5 6 6 6 6 5 5 5 5 5 5 5 5 5 5 5 4 4 4 4 4 3 3 3 2 2 2 1 2 2 2 2 3 2 2 3 3 4 4 4
2 2 2 2 2 2 3 3 3 3 3 3 3 3 3 4 4 4 4 4 4 4 5 5 5 5 5 5 5 5 5 6 6 6 6 5 5 5 5 5 5 5 5 5 5 4 4 4 4 4 4 3 3 2 2 1 1 1 2 2 2 3 2 2 2 3 3 4 4
2 2 2 2 2 2 2 2 2 3 3 3 3 3 3 3 3 3 4 4 4 4 4 4 5 5 5 5 5 5 5 5 5 5 5 5 5 5 5 5 5 5 5 5 5 4 4 4 4 4 4 3 3 2 2 1 1 1 1 2 2 2 2 2 2 2 2 3 4
2 2 2 2 2 2 2 2 2 2 2 2 2 3 3 3 3 3 3 3 4 4 4 4 4 4 5 5 5 5 5 5 5 5 5 5 5 5 5 5 5 5 5 5 5 4 4 4 4 4 3 3 3 2 2 1 1 1 1 1 2 2 2 2 2 2 2 2 3
2 2 2 2 2 2 2 2 2 2 2 2 2 2 2 3 3 3 3 3 3 3 3 4 4 4 4 4 4 5 5 5 5 5 5 5 5 5 5 5 5 5 5 5 5 4 4 4 4 4 3 3 2 2 1 1 1 1 1 1 1 2 2 2 2 2 2 2 2
2 2 1 1 1 2 2 2 2 2 2 2 2 2 2 2 2 2 3 3 3 3 3 3 3 3 4 4 4 4 4 5 5 5 5 5 5 5 5 5 5 5 5 5 5 4 4 4 4 4 3 3 2 2 1 1 1 1 1 1 2 2 2 2 2 2 1 1 2
2 2 1 1 1 1 1 1 1 1 2 2 2 2 2 2 2 2 2 2 2 2 3 3 3 3 3 3 3 4 4 4 4 5 5 5 5 5 5 5 5 5 5 5 5 4 4 4 4 3 3 3 3 2 2 1 1 1 2 2 2 2 2 1 1 1 1 1 1
2 2 1 1 1 1 1 1 1 1 1 2 2 2 2 2 2 2 2 2 2 2 2 2 2 3 3 3 3 3 4 4 4 4 4 4 5 5 5 5 5 5 5 5 4 4 4 4 4 3 3 3 3 2 2 1 1 1 2 2 2 2 2 2 1 1 1 1 1
2 2 1 1 1 1 1 1 1 1 1 1 1 1 2 2 2 2 2 2 2 2 2 2 2 2 2 3 3 3 3 3 4 4 4 4 4 4 4 5 4 4 4 4 4 4 4 4 4 4 3 3 3 2 2 1 1 2 2 2 2 2 2 2 2 2 1 1 1
2 1 1 1 1 1 1 1 1 1 1 1 1 1 2 2 2 2 2 2 2 2 2 2 2 2 2 2 2 2 3 3 3 3 4 4 4 4 4 4 4 4 4 4 4 4 4 4 4 4 3 3 3 2 2 1 1 1 2 2 2 2 2 2 2 2 2 1 1
Height
776 776 776 776 776 775 775 775 775 774 774 774 773 773 773 772 772 771 770 770 769 769 768 768 767 766 765 764 763 763 762 761 760 760 759 758 758 757 756 755 754 753 752 751 750 749 748 747 747 746 745 745 744 743 742 741 740 739 738 737 737 736 735 735 734 734 734 734 734
775 775 775 775 775 775 774 774 774 774 774 773 773 773 772 772 771 770 770 770 769 768 768 767 767 766 765 764 764 763 762 761 760 760 759 759 758 757 756 755 754 753 753 751 750 749 749 748 748 747 746 745 745 744 743 742 741 740 739 738 738 737 737 736 735 735 735 734 734
775 774 774 774 774 774 774 773 773 773 773 773 773 772 772 771 771 770 770 769 768 768 768 767 766 766 765 764 764 763 762 761 760 760 759 759 758 758 757 756 755 754 753 752 751 750 749 749 748 748 747 746 745 744 744 743 742 742 741 740 739 739 738 738 737 736 736 735 735
774 774 774 774 773 773 773 773 773 773 773 772 772 772 771 771 770 770 769 768 768 768 767 767 766 765 765 764 764 763 763 762 761 760 759 759 758 758 757 756 755 755 754 753 752 751 750 749 749 748 748 747 746 745 745 744 743 743 743 742 741 740 740 739 738 738 737 736 736
773 773 773 773 773 773 773 773 772 772 772 772 772 771 771 770 770 769 769 768 768 768 767 767 766 765 765 764 763 763 762 762 761 760 759 759 758 758 758 757 756 755 754 753 753 752 751 750 749 749 748 747 747 746 746 745 744 744 743 743 743 742 741 741 740 739 738 738 737
773 772 772 772 772 772 772 772 772 772 771 771 771 771 770 770 769 769 768 768 768 767 767 767 766 765 764 764 763 763 762 762 761 760 759 759 758 758 758 757 756 755 754 754 753 753 752 751 750 749 748 748 748 747 746 746 745 744 744 743 743 743 742 742 741 740 740 739 738
772 772 772 772 772 772 772 772 771 771 771 771 770 770 769 769 769 768 768 768 767 767 766 766 765 765 764 763 763 763 762 761 761 760 760 759 758 758 758 757 756 755 755 754 753 753 752 751 751 750 749 749 748 748 747 746 746 745 744 744 744 743 743 743 742 742 741 740 739
771 771 771 771 771 771 771 771 771 771 770 770 770 769 769 769 768 768 767 767 767 766 766 765 765 764 764 763 763 762 762 761 761 760 760 759 758 758 757 757 756 756 755 754 754 753 753 752 751 751 750 749 749 748 748 747 746 746 745 745 744 744 743 743 743 742 742 741 741
771 770 770 770 770 771 771 771 770 770 770 769 769 769 768 768 768 767 767 766 766 766 765 765 764 764 763 763 763 762 762 761 761 760 760 759 759 758 757 757 756 756 755 755 754 753 753 752 752 751 751 750 750 749 748 748 747 747 746 745 745 744 744 743 743 743 742 742 741
770 770 770 770 770 770 770 770 770 770 769 769 769 768 768 768 767 767 766 766 765 765 765 764 764 763 763 763 762 762 761 761 760 760 760 759 759 758 758 757 756 756 755 755 754 754 753 753 752 752 751 751 750 749 749 748 748 747 746 746 745 745 744 744 743 743 742 742 741
769 769 769 769 769 769 769 769 769 769 769 768 768 768 768 768 767 767 766 766 765 764 764 764 763 763 763 762 762 761 761 760 760 760 759 759 759 758 758 757 756 756 755 755 754 754 753 753 753 752 751 751 750 750 749 748 748 748 747 746 746 745 744 744 743 743 742 742 741
769 769 768 768 768 768 768 769 768 768 768 768 768 768 767 767 767 767 766 765 765 764 764 763 763 763 762 762 761 761 761 760 760 759 759 759 758 758 758 757 756 756 755 755 755 754 753 753 753 752 752 751 751 750 749 749 748 748 747 747 746 745 744 744 743 743 743 742 741
769 768 768 768 768 768 768 768 768 768 768 768 767 767 767 767 767 766 766 765 764 764 763 763 763 762 762 761 761 760 760 760 760 759 759 758 758 758 758 757 756 756 755 755 755 754 754 753 753 752 752 751 751 750 750 749 749 748 747 747 746 745 745 744 744 743 743 742 742
768 768 768 768 768 768 768 767 767 767 767 767 767 767 766 766 766 766 765 765 764 763 763 763 762 762 761 760 760 760 760 759 759 759 759 758 758 758 757 757 756 756 755 755 754 754 753 753 753 752 752 751 751 750 750 749 749 748 748 747 747 746 745 745 744 743 743 742 742
768 768 768 767 767 767 767 767 767 767 767 766 766 766 766 766 766 766 765 764 764 763 763 762 762 761 760 760 760 759 759 759 759 759 758 758 758 758 757 757 756 755 755 754 754 754 753 753 753 752 752 751 751 750 750 749 749 748 748 748 747 746 746 745 744 744 743 743 742
768 768 768 767 767 767 766 766 766 766 766 766 766 766 766 766 766 766 765 764 764 763 763 762 761 761 760 760 759 759 759 759 758 758 758 758 758 757 757 756 755 755 754 754 753 753 753 753 752 752 752 751 751 750 750 749 749 748 748 748 747 746 746 745 745 744 743 743 743
768 768 768 767 767 766 766 766 766 766 766 766 766 766 766 766 766 766 765 764 764 763 762 762 761 760 760 759 759 759 758 758 758 758 758 758 757 757 756 756 755 754 754 753 753 753 752 752 752 752 751 751 750 750 750 749 748 748 748 747 747 746 746 745 745 744 743 743 743
768 768 768 768 767 767 766 766 766 766 765 765 765 765 765 765 765 765 765 764 763 763 762 761 761 760 759 759 758 758 758 758 758 758 757 757 757 757 756 755 755 754 753 753 753 752 752 752 751 751 751 751 750 750 750 749 748 748 747 747 746 746 745 745 744 744 743 743 743
768 768 768 768 768 767 767 766 766 766 765 765 765 765 764 764 764 764 764 763 763 762 762 761 760 759 759 758 758 758 757 757 757 757 757 756 756 756 755 755 754 754 753 753 752 752 751 751 751 751 750 750 750 750 750 749 748 748 747 746 746 745 745 744 744 743 743 743 742
768 768 768 768 767 767 767 766 766 766 765 765 764 764 764 763 763 763 763 762 762 762 761 760 759 759 758 758 757 757 756 756 756 756 755 755 755 755 754 754 753 753 752 752 751 751 751 750 750 750 750 750 749 749 749 749 748 748 747 746 746 745 745 744 744 743 743 742 742
768 768 767 767 767 767 767 766 766 765 765 764 764 763 763 763 763 762 762 762 761 761 760 760 759 758 758 757 757 756 756 755 755 755 754 754 754 754 753 753 753 752 751 751 751 750 750 750 750 749 749 749 749 748 748 748 748 747 747 746 746 745 745 744 744 743 743 742 742
768 767 767 767 767 766 766 766 765 765 764 764 763 763 763 762 762 762 761 761 760 760 760 759 758 758 758 757 756 756 755 754 754 753 753 753 753 753 752 752 752 751 750 750 749 749 749 749 749 748 748 748 748 748 748 747 747 747 746 746 745 745 744 744 743 743 743 742 742
767 767 767 767 766 766 766 765 765 764 764 763 763 763 762 762 761 761 760 760 760 759 759 758 758 758 757 757 756 755 754 753 753 753 752 752 752 751 751 751 750 750 749 749 749 748 748 748 748 747 747 747 747 747 747 746 746 746 745 745 744 744 743 743 743 742 742 742 741
767 767 766 766 766 765 765 765 764 764 763 763 763 762 762 761 761 760 760 759 759 758 758 758 757 757 756 756 755 755 754 753 752 751 751 751 750 750 750 750 749 749 748 748 748 748 747 747 746 746 746 746 746 746 746 746 745 745 745 744 743 743 743 742 742 742 741 741 741
767 766 766 766 765 765 764 764 764 763 763 762 762 761 761 760 760 759 759 758 758 758 757 757 756 756 755 755 754 754 753 753 752 751 750 749 749 749 749 749 748 748 748 747 747 747 746 746 745 745 745 745 745 745 745 745 744 744 744 743 743 742 742 741 741 741 740 740 740
767 766 765 765 764 764 764 763 763 763 762 762 761 761 760 760 759 758 758 758 757 757 756 756 755 755 754 754 753 753 753 752 751 750 749 748 748 748 748 747 747 747 747 747 746 746 746 745 745 744 744 744 744 744 744 743 743 743 743 742 742 741 741 740 740 740 739 739 739
766 766 765 764 764 763 763 763 762 762 761 761 760 759 759 759 758 758 757 757 756 756 756 755 755 754 754 753 753 752 751 751 750 749 748 748 747 746 746 746 746 746 746 746 745 745 745 745 744 744 743 743 743 743 743 743 742 742 742 741 741 740 740 739 739 739 738 738 738
766 765 764 764 763 763 762 762 761 761 760 759 759 758 758 758 757 757 756 756 755 755 754 754 754 753 753 752 751 751 750 750 749 748 748 747 746 745 745 745 745 745 745 745 745 744 744 744 743 743 743 742 742 741 741 741 741 741 740 740 740 739 739 738 738 738 738 737 737
765 765 764 763 763 762 762 761 760 760 759 758 758 758 757 756 756 755 755 754 754 753 753 753 753 752 752 751 750 750 749 748 748 747 747 746 745 744 744 744 743 743 744 744 744 743 743 743 743 742 742 741 741 740 740 740 740 739 739 739 738 738 738 737 737 737 737 736 736
765 764 763 763 762 762 761 760 760 759 758 758 757 756 756 755 755 754 754 753 753 752 752 752 751 751 751 750 749 749 748 748 747 746 746 745 744 743 743 743 742 742 742 743 743 743 742 742 741 741 740 740 740 739 738 738 738 738 738 738 738 737 737 736 736 736 735 735 735
764 764 763 763 762 761 760 760 759 758 758 757 756 755 755 754 754 753 753 752 751 751 750 750 750 749 749 749 748 748 747 746 746 745 744 744 743 742 742 742 741 741 741 741 741 741 741 741 740 740 739 739 738 738 737 737 737 737 737 737 736 736 735 735 735 734 734 734 733
764 763 763 762 761 760 760 759 758 758 757 756 755 755 754 753 753 752 752 751 750 749 749 748 748 748 748 747 747 746 746 745 744 744 743 743 742 741 741 740 740 740 740 740 740 740 740 740 739 739 738 738 737 736 736 736 735 735 735 735 735 735 734 734 733 733 733 733 733
763 763 762 761 760 760 759 758 758 757 756 755 754 754 753 753 752 751 751 750 749 748 748 747 747 746 746 746 745 745 744 744 743 743 742 742 741 740 740 739 738 738 738 738 738 738 738 738 738 738 737 737 736 735 734 734 734 734 734 734 734 733 733 733 732 732 732 732 731
763 762 762 761 760 759 758 758 757 756 755 754 753 753 752 752 751 750 750 749 748 748 747 746 746 745 745 744 744 743 743 742 742 742 741 741 740 739 739 738 737 737 737 737 737 736 736 736 736 736 736 736 735 734 733 733 733 732 732 732 732 732 732 731 731 730 730 730 730
763 762 761 760 759 759 758 757 756 755 754 753 753 752 751 751 750 749 749 748 748 747 746 745 745 744 743 743 743 742 742 741 741 740 740 740 739 738 738 736 736 736 736 735 735 735 734 734 734 734 734 734 733 733 732 731 731 731 730 730 730 730 730 730 729 729 729 729 729
762 761 761 760 759 758 757 756 756 755 754 753 752 751 750 750 749 748 748 747 746 745 745 744 743 743 742 742 741 741 741 740 739 739 738 738 738 737 736 735 734 734 734 734 733 733 733 733 733 733 733 733 732 731 731 730 729 729 729 729 729 728 728 728 728 728 728 728 728
761 761 760 759 758 758 757 756 755 754 753 752 751 751 750 749 748 748 747 746 745 744 743 743 742 741 741 740 740 739 739 739 738 738 737 737 736 736 735 734 733 733 733 733 732 732 731 731 731 731 731 731 730 730 729 728 728 728 727 727 727 727 727 727 727 726 726 726 726
760 759 759 758 758 757 756 755 754 753 753 752 751 750 749 748 747 747 746 745 744 743 742 741 741 740 739 739 738 738 738 738 738 737 736 735 735 734 733 732 732 731 731 731 731 730 730 729 729 729 729 729 728 728 728 727 727 726 726 725 725 725 725 725 725 724 724 724 724
759 758 758 757 756 756 755 754 753 753 752 751 750 749 748 748 747 746 745 744 744 743 742 741 740 739 738 738 737 737 736 736 736 735 735 734 733 733 732 731 730 729 729 729 729 728 728 728 727 728 728 727 727 727 726 726 725 725 724 724 723 723 723 723 723 723 723 723 723
758 757 756 756 755 754 754 753 752 752 751 750 749 748 748 747 746 745 744 744 743 742 741 740 739 738 738 737 736 735 734 734 734 733 733 732 732 731 730 729 728 728 727 727 727 727 726 726 726 726 726 726 725 725 725 724 724 723 723 722 722 722 721 721 721 721 721 721 721
756 756 755 755 754 753 753 752 751 750 750 749 748 748 747 746 745 744 743 743 742 741 740 739 738 737 736 736 735 734 733 732 732 731 731 731 730 729 728 728 726 726 725 725 725 725 724 724 724 724 724 724 723 723 723 723 723 722 721 720 720 720 720 720 719 719 719 719 719
Wind_Speed
13 14 14 14 15 15 15 15 14 14 13 13 13 14 14 15 15 16 15 14 13 13 14 14 15 16 18 19 21 21 21 19 19 19 19 19 19 19 19 19 20 21 21 22 22 22 21 21 21 20 19 19 20 21 22 23 23 24 25 27 27 26 24 21 18 16 14 13 12
13 14 14 14 15 15 15 15 14 14 13 13 12 13 14 15 15 16 15 14 13 13 13 13 14 15 17 19 20 20 20 19 19 19 20 20 19 18 18 18 18 19 20 21 21 21 20 20 20 19 19 18 18 20 21 21 22 23 24 25 26 26 25 24 22 19 17 15 13
13 13 14 14 14 15 15 15 14 14 13 12 12 12 14 15 16 16 15 14 13 13 12 12 13 15 17 18 19 19 19 18 18 19 20 21 19 18 17 16 17 17 18 19 20 20 19 18 18 18 19 19 18 19 20 20 20 21 22 23 24 24 25 25 24 22 20 18 15
12 13 13 13 14 14 14 15 14 14 13 12 12 13 14 15 16 15 15 14 13 12 11 11 12 15 17 18 19 19 18 17 18 20 21 21 20 19 17 15 15 16 17 18 18 18 18 18 17 17 18 18 18 19 20 20 19 19 19 20 21 22 23 24 24 23 22 21 18
13 13 13 13 13 13 14 14 14 14 14 13 13 13 14 15 15 15 14 13 12 11 10 10 12 15 17 18 19 18 18 17 18 19 21 22 22 20 17 15 15 15 16 16 17 17 17 17 17 17 17 18 17 18 19 19 19 18 17 17 18 19 20 21 22 22 22 22 20
13 13 13 13 13 13 14 14 14 14 14 14 14 14 14 14 14 13 13 12 12 12 11 11 13 15 17 18 18 18 17 17 18 19 21 22 22 21 19 17 15 14 15 15 16 16 16 17 17 17 17 17 17 17 18 18 18 18 17 16 17 17 18 19 20 20 21 21 21
13 13 13 13 13 13 14 14 15 15 15 15 15 15 15 14 13 13 13 13 13 13 12 13 14 15 17 17 17 17 17 17 17 18 20 21 23 23 21 19 16 15 14 15 15 15 15 16 16 17 17 17 17 17 18 18 18 17 17 16 16 16 16 17 17 18 19 19 20
12 12 12 12 12 13 13 14 15 15 15 15 15 15 14 13 13 12 12 13 13 13 13 14 14 15 16 16 16 16 16 16 17 18 19 20 22 23 23 21 19 16 15 14 14 14 14 15 15 16 16 16 16 17 17 17 17 17 17 16 16 15 15 15 15 16 16 17 18
12 12 12 12 12 12 13 14 14 14 15 15 15 14 13 12 12 12 12 12 13 13 13 14 14 15 16 16 16 15 15 15 16 17 18 19 20 22 23 23 20 18 16 15 14 13 13 13 14 14 15 15 15 16 16 16 16 16 16 16 16 15 14 14 14 15 15 15 16
12 11 11 11 12 12 13 13 14 14 14 14 14 13 12 12 12 11 12 12 12 13 13 13 14 15 15 15 15 15 14 15 15 16 17 18 19 20 22 22 21 19 17 16 14 13 13 12 13 13 14 14 15 15 15 15 16 16 16 16 16 15 15 14 14 14 14 15 15
11 11 11 11 11 12 13 13 14 14 15 15 14 13 13 12 12 11 11 12 12 12 13 13 13 14 14 15 14 14 14 14 15 15 16 17 18 19 20 21 21 20 18 17 15 14 13 12 12 12 13 14 14 14 15 15 15 15 15 15 16 16 15 15 14 14 14 14 14
10 10 10 10 11 12 12 13 14 14 15 15 15 14 13 13 12 11 11 11 12 12 12 13 13 13 14 14 14 14 14 14 14 14 15 16 17 18 19 20 20 20 19 17 17 15 14 12 11 12 12 13 13 14 14 14 14 14 15 15 15 16 16 16 15 14 14 14 14
10 9 9 10 10 11 11 12 13 14 14 15 14 14 13 13 12 11 11 11 12 12 12 12 12 13 13 13 13 13 13 13 13 14 15 16 16 17 18 18 19 19 19 18 18 17 15 13 12 11 11 11 12 13 13 14 14 14 14 14 15 15 16 16 16 14 13 13 13
9 9 9 9 10 10 11 11 12 12 13 13 13 13 12 12 12 12 12 12 13 13 13 13 13 12 12 12 13 13 13 13 13 14 14 15 16 16 16 17 18 19 19 19 18 17 16 14 13 11 11 11 11 11 12 13 13 13 13 13 14 15 15 15 16 15 14 14 13
8 9 9 10 10 10 10 11 11 11 11 12 11 11 12 12 12 12 13 13 14 14 14 14 13 12 12 12 12 13 13 13 13 14 14 15 15 15 15 16 17 18 19 19 19 18 17 15 14 12 11 10 10 11 11 12 12 12 12 12 12 13 14 14 15 15 15 14 14
7 8 9 10 10 10 10 10 10 10 10 11 11 11 11 11 11 12 13 14 15 15 15 14 13 13 12 11 11 12 12 13 13 14 14 14 14 14 15 15 16 18 19 20 19 19 17 16 15 13 11 10 10 10 11 11 12 11 11 11 12 12 13 13 14 14 14 14 14
6 7 8 9 10 10 10 10 10 10 10 11 11 11 11 11 11 11 12 14 15 15 15 14 13 13 12 12 11 11 12 12 13 14 14 14 14 14 14 15 16 18 19 19 19 19 18 17 16 14 12 10 10 10 10 11 11 11 11 11 11 12 12 13 13 14 14 14 13
6 6 7 8 8 8 9 9 9 10 10 11 11 11 11 11 11 12 12 13 14 14 15 14 14 13 13 12 12 12 12 12 13 13 14 14 14 15 15 16 17 18 19 19 19 18 18 17 16 15 13 11 9 9 10 11 11 11 11 11 11 11 12 12 13 13 14 14 13
6 6 6 6 6 7 7 7 8 9 10 11 12 12 12 12 12 12 12 13 13 14 14 14 14 14 13 13 13 12 12 12 13 13 14 15 15 16 17 17 18 18 19 19 19 19 18 18 16 15 13 11 9 9 10 11 11 11 11 11 10 11 11 12 12 13 13 13 14
6 6 6 6 7 7 8 8 9 10 11 11 12 12 12 13 13 13 13 13 13 13 14 14 15 15 14 14 14 13 13 12 13 13 14 15 16 17 17 18 18 19 19 19 19 19 18 17 16 15 13 11 9 9 9 10 11 12 11 10 10 10 10 11 12 12 13 13 14
7 7 7 8 9 10 10 11 11 12 12 12 12 12 12 13 13 14 14 14 14 14 15 15 15 16 16 15 15 15 14 13 13 13 14 15 16 17 18 18 18 19 19 20 20 19 19 17 16 15 13 12 10 9 10 11 11 12 11 10 9 9 9 9 10 11 12 13 13
8 9 9 10 10 11 11 11 12 12 12 12 12 12 12 13 13 14 14 15 15 16 16 16 16 16 16 16 16 16 15 14 14 13 13 14 15 16 17 18 19 19 20 20 20 20 19 18 17 15 13 12 10 10 10 10 11 12 11 11 10 9 9 8 9 9 10 11 12
10 10 10 10 10 10 10 10 11 11 12 12 12 12 12 13 14 14 15 15 16 16 17 17 17 17 17 17 17 17 17 16 15 14 14 14 14 15 17 18 19 19 20 20 20 20 19 18 17 15 14 12 10 9 9 10 10 11 11 12 12 11 11 10 9 9 9 10 11
10 10 10 10 10 9 10 10 10 11 11 11 12 12 13 13 14 14 15 15 16 17 17 18 18 18 18 18 18 18 17 17 17 16 15 14 14 14 15 17 18 19 20 20 20 20 19 18 17 16 14 12 11 9 9 9 10 10 11 12 13 13 13 12 10 9 8 8 9
10 10 10 10 10 10 10 10 10 10 10 11 11 12 12 13 13 14 15 16 16 17 17 18 18 19 19 19 19 18 18 18 18 17 17 16 15 15 15 16 17 19 20 20 20 20 19 18 17 16 15 14 12 11 11 10 10 10 11 12 13 14 14 13 11 9 8 7 8
10 10 11 11 11 10 10 10 10 10 10 11 11 12 12 13 13 14 15 16 16 17 17 18 19 19 19 19 19 19 19 19 18 18 18 18 17 16 16 16 16 18 19 20 20 20 19 18 17 16 16 15 14 13 13 12 11 11 11 13 13 14 14 13 11 9 8 7 8
11 11 12 12 12 11 11 10 10 10 11 11 11 12 12 13 13 14 15 15 16 17 17 18 19 19 20 20 20 20 20 19 19 19 19 18 18 18 17 17 16 17 18 19 19 19 19 18 17 16 16 16 16 15 14 14 13 12 12 13 14 14 13 12 11 10 9 9 9
12 13 13 13 13 12 12 12 12 12 12 12 12 13 13 14 14 14 14 15 16 16 17 18 18 19 20 20 21 21 21 20 19 19 19 19 19 19 19 18 17 17 17 17 18 19 19 19 18 17 16 17 17 16 15 14 14 13 13 13 13 13 13 12 12 11 11 10 10
13 14 14 14 14 14 13 13 13 13 13 14 14 14 15 15 15 15 15 15 15 16 16 17 17 18 19 20 21 21 21 21 20 20 19 20 20 20 20 20 19 18 17 17 17 18 18 19 19 18 17 17 17 17 16 15 15 14 14 14 14 13 13 13 13 13 12 12 12
14 14 15 15 15 15 14 14 14 14 14 15 15 15 15 15 15 15 15 16 16 16 16 16 17 18 19 20 21 21 22 21 21 21 20 20 21 21 22 21 20 19 18 17 17 17 18 18 19 19 18 18 18 17 17 16 16 15 15 15 15 14 14 14 14 14 14 13 13
15 15 15 15 15 15 15 14 14 14 14 14 14 15 15 15 15 15 15 16 16 16 16 16 17 17 19 20 21 21 22 22 22 22 21 21 22 22 22 22 22 21 20 18 17 17 17 18 19 19 19 18 18 18 18 17 17 16 16 16 16 16 15 15 15 14 14 14 14
15 16 16 16 16 15 15 15 14 14 14 14 14 14 15 15 15 15 15 15 15 16 16 16 17 18 18 19 20 21 22 22 22 22 22 22 22 23 23 23 23 22 21 20 19 18 18 18 18 19 19 19 18 18 18 18 18 17 17 17 17 17 16 16 15 15 15 15 15
16 16 16 16 16 16 16 15 15 14 14 14 14 14 14 15 15 15 15 15 15 15 15 16 17 18 18 19 20 21 22 22 22 22 22 22 22 23 23 24 24 23 23 21 20 19 18 18 18 19 19 19 19 19 19 19 18 18 18 18 18 18 17 17 17 16 16 16 16
16 16 16 17 17 16 16 16 15 15 15 15 15 14 14 15 15 15 15 15 15 15 15 16 16 17 18 19 20 21 22 22 23 23 23 23 23 23 24 25 25 24 23 22 21 20 19 18 18 18 19 18 19 19 19 19 19 19 19 19 19 19 18 18 18 17 17 17 17
16 16 17 17 17 17 17 17 16 16 16 16 15 15 15 15 15 15 15 15 15 15 16 16 16 17 18 19 20 21 22 23 23 24 24 23 23 24 24 25 25 25 24 23 22 21 20 19 18 18 18 18 19 19 20 20 20 20 20 20 20 20 19 19 19 19 18 18 18
16 17 17 18 18 18 18 18 17 17 17 16 16 16 16 15 15 15 15 15 16 16 16 16 16 17 18 18 19 20 21 22 23 23 24 23 23 24 24 25 25 25 24 23 22 21 20 20 19 18 18 18 18 19 20 21 21 21 21 21 21 21 20 20 20 20 20 19 19
16 16 17 17 18 18 18 18 18 18 18 18 18 17 17 17 17 17 16 16 16 16 17 17 17 17 18 18 19 20 21 22 22 23 24 24 23 24 24 25 25 25 24 23 23 22 21 20 19 18 18 18 19 20 20 21 21 22 22 22 22 21 21 20 20 20 20 20 20
17 17 17 17 17 18 18 18 19 19 19 19 19 19 19 18 18 18 17 17 17 17 18 18 18 18 18 18 19 20 21 21 22 23 24 24 24 24 25 25 26 26 25 24 23 22 22 21 20 19 18 19 20 20 21 21 22 22 22 22 22 22 22 21 21 21 21 21 21
17 17 17 17 17 17 18 18 19 19 19 20 20 20 20 20 20 19 19 18 17 18 18 19 19 19 19 19 20 21 21 22 22 23 23 24 24 25 25 26 27 27 26 25 24 23 22 21 20 19 19 19 20 21 21 21 22 22 22 22 23 23 22 22 21 21 22 22 21
18 17 17 17 17 17 17 18 18 19 19 20 20 21 21 21 20 20 19 19 18 18 19 19 20 20 20 20 20 21 22 22 22 23 23 24 24 25 25 26 27 27 27 26 24 24 23 22 21 20 19 20 20 21 21 21 21 22 22 23 23 23 23 22 21 21 22 22 22
18 18 17 17 17 17 17 18 18 18 18 19 20 20 20 21 21 20 20 20 20 20 20 21 21 21 21 21 21 22 23 23 24 23 24 24 24 25 25 26 27 27 27 26 25 24 23 23 22 20 20 20 21 21 21 21 22 22 23 23 23 23 22 22 21 21 22 22 22
Wind_Direction
290 294 297 298 299 298 297 296 296 295 293 292 293 296 300 303 307 312 319 322 323 322 322 324 325 327 330 336 341 345 348 351 351 351 351 351 348 347 349 352 355 358 1 3 6 11 15 17 14 10 8 10 10 10 11 13 13 14 15 16 17 17 18 18 17 15 14 15 16
293 298 301 301 301 300 299 299 298 298 297 296 296 296 298 302 306 312 318 322 325 326 326 325 324 324 326 331 337 342 346 348 346 347 349 351 350 349 348 351 354 357 360 2 6 11 15 17 13 8 6 8 9 9 10 13 13 13 14 14 14 15 15 15 15 15 14 14 13
295 299 301 301 301 300 300 300 301 300 299 297 294 292 294 297 303 309 316 321 325 329 331 328 323 320 321 326 333 339 343 345 342 342 345 349 351 350 349 349 351 356 359 2 6 10 13 15 13 8 7 9 8 7 8 11 13 14 13 12 12 13 14 13 12 12 13 13 14
296 298 300 300 300 300 300 300 300 300 299 295 290 287 289 293 300 307 313 319 323 329 331 327 318 315 316 322 328 335 341 342 340 339 341 345 350 351 349 347 349 353 357 1 5 8 10 12 10 8 8 11 9 6 6 9 12 14 14 11 11 12 13 12 11 10 10 9 11
297 300 301 301 301 300 299 299 297 297 296 293 288 285 288 293 299 306 311 314 317 320 321 315 308 308 312 318 325 332 338 340 338 337 337 340 345 350 350 348 348 351 355 359 3 6 7 8 7 6 8 11 10 7 5 7 9 12 12 11 11 11 12 11 10 9 8 6 6
298 300 300 301 301 300 299 298 296 294 293 291 287 286 288 293 298 301 304 306 308 309 306 302 301 304 310 316 323 330 335 336 336 335 335 336 340 345 349 350 349 350 352 356 1 4 5 5 4 4 6 9 9 7 6 6 7 8 9 10 11 11 11 11 9 8 7 5 4
295 296 298 299 299 299 298 296 295 293 292 290 287 287 290 294 296 298 300 303 305 305 302 300 300 304 309 315 322 328 331 333 332 333 333 334 336 341 346 350 351 350 350 354 358 1 3 3 2 2 4 6 5 5 5 6 6 6 6 8 9 9 9 9 8 7 7 5 4
292 293 295 297 298 298 298 297 295 292 290 289 288 290 294 297 298 300 303 305 306 307 307 305 306 308 311 316 321 325 328 329 329 330 331 332 334 337 341 346 349 350 350 352 355 358 360 360 359 0 2 3 2 1 2 3 4 4 4 4 5 6 6 5 6 7 7 6 5
292 294 296 298 300 300 300 299 296 293 291 290 291 293 296 298 299 301 303 304 308 310 311 310 310 312 314 317 321 324 325 326 326 327 329 331 332 334 337 340 345 349 351 351 352 354 356 356 356 357 359 0 359 359 359 1 3 3 2 1 2 2 1 1 3 5 6 6 6
295 296 298 300 301 303 303 302 299 297 294 293 294 295 296 298 300 301 303 307 311 312 312 312 313 314 315 318 321 323 324 324 324 325 327 329 330 332 333 335 340 346 350 351 351 351 352 352 352 353 355 357 357 357 357 359 1 1 0 359 359 358 358 358 359 2 3 4 5
297 298 299 301 303 304 304 302 300 298 297 296 296 296 297 297 298 301 305 309 310 310 312 315 315 315 316 318 321 323 324 323 323 323 324 325 327 328 330 331 334 340 346 350 349 348 348 348 347 348 349 351 353 354 355 357 359 359 358 357 356 355 356 356 358 359 0 0 1
300 301 301 301 303 304 303 302 300 298 296 296 297 297 298 298 300 302 304 306 306 309 314 317 316 316 317 319 322 323 324 323 321 320 320 321 323 325 326 327 330 335 340 345 346 346 345 344 342 342 344 347 349 350 352 354 356 356 355 355 354 354 354 354 356 357 358 357 357
306 306 305 305 306 306 306 304 302 299 297 297 297 299 300 301 302 302 302 302 305 311 316 318 318 318 319 321 323 323 323 321 319 317 316 316 319 321 323 323 325 329 333 338 341 342 342 340 337 336 338 342 345 346 347 350 352 353 352 351 351 352 352 352 353 355 355 355 355
313 312 311 310 311 312 313 311 309 306 303 302 302 303 304 304 305 304 302 302 305 310 315 318 320 321 323 323 324 323 322 320 317 314 313 313 315 317 318 319 321 323 327 331 334 337 338 338 336 333 332 335 340 341 342 344 347 350 350 348 348 348 349 349 350 352 353 354 353
318 315 313 314 316 319 320 320 317 314 311 310 309 308 307 306 306 304 302 301 304 308 312 316 320 322 324 323 321 320 318 316 314 311 310 310 311 313 314 314 316 318 321 324 327 330 333 335 334 331 329 330 334 335 336 337 341 344 346 346 344 344 344 346 348 350 351 352 352
318 312 311 312 316 320 323 324 322 320 316 313 310 306 302 299 298 296 295 296 299 303 308 312 316 318 318 316 314 312 310 309 308 307 306 307 308 309 308 308 309 312 316 319 322 325 328 330 331 330 328 327 329 329 329 330 333 337 340 341 341 340 341 343 345 347 349 351 351
320 313 308 309 312 316 319 321 320 317 312 308 304 298 292 288 285 282 282 286 291 296 301 306 309 311 309 308 306 303 301 301 300 300 300 301 302 302 301 301 303 306 310 314 317 320 323 325 327 327 327 325 324 323 323 323 325 328 332 335 336 337 339 341 343 344 346 348 349
333 324 316 312 312 314 316 316 313 308 305 302 300 297 294 291 286 282 280 281 286 292 297 301 305 306 305 304 304 301 298 295 294 293 293 294 294 294 294 295 298 301 305 309 312 316 318 320 321 322 323 322 319 316 315 315 317 320 324 327 330 333 335 338 340 342 344 346 347
345 340 334 328 322 317 314 308 304 301 300 300 301 302 302 301 300 298 295 293 295 297 300 303 305 307 307 306 305 304 300 296 292 291 290 288 288 288 289 292 294 297 300 303 307 311 314 316 316 316 316 315 310 306 304 305 308 312 316 320 323 326 329 333 335 337 340 342 343
352 347 341 334 326 318 312 306 302 301 302 302 303 304 306 308 309 309 308 308 309 309 308 308 309 309 310 310 309 306 303 300 295 290 288 286 285 286 288 290 292 294 296 299 303 306 309 311 311 310 308 305 299 293 291 293 298 303 308 311 314 318 322 325 328 330 333 335 337
351 344 335 329 323 319 315 312 310 309 309 309 309 309 310 311 312 312 313 315 315 314 312 312 311 311 311 311 310 308 307 304 298 292 287 285 284 285 287 288 290 292 294 297 300 303 306 308 307 306 303 299 291 284 281 284 290 297 302 304 306 307 310 314 317 320 323 326 330
346 339 334 331 328 326 323 321 319 317 316 316 315 315 314 314 313 314 314 315 314 313 312 311 311 311 311 311 309 309 309 308 304 298 292 287 285 284 285 286 288 290 292 295 298 301 304 306 306 305 302 297 291 284 281 283 289 295 299 299 298 296 296 298 302 308 313 317 322
344 341 340 339 336 333 330 327 324 322 320 319 318 317 315 314 313 313 312 311 310 309 309 309 310 309 309 309 308 308 308 308 307 306 301 295 289 285 284 284 285 287 289 292 295 299 301 303 304 304 302 297 292 286 283 284 288 292 294 294 292 291 290 290 292 297 303 309 314
344 345 344 343 341 338 334 331 328 325 322 319 318 316 315 313 312 311 308 307 306 305 306 307 307 307 306 306 305 304 304 305 306 307 307 303 296 289 283 281 282 284 287 289 292 295 297 299 300 300 298 293 286 279 275 277 281 284 286 287 289 290 291 291 292 293 297 302 306
343 343 343 343 343 341 340 336 332 328 325 322 320 318 316 314 312 309 307 305 304 303 303 303 303 303 303 302 301 301 301 301 303 306 307 307 304 297 288 281 279 280 283 285 288 290 292 293 294 294 292 287 279 270 264 262 267 272 276 279 284 288 292 294 295 294 294 296 298
339 339 340 342 343 344 342 339 335 331 328 326 323 320 317 315 313 310 307 305 304 303 302 301 300 299 298 297 297 297 297 297 300 302 304 306 305 302 295 287 281 279 280 281 283 285 286 286 286 287 286 284 279 270 261 256 256 260 265 271 278 284 290 294 296 296 294 291 291
334 335 337 339 340 341 340 338 336 332 330 327 324 321 318 316 313 310 307 305 304 303 301 299 297 296 295 294 293 292 292 294 296 299 301 303 303 302 299 293 287 281 278 278 280 281 281 280 278 278 279 280 279 274 266 259 256 256 260 266 273 280 285 289 291 292 291 288 287
330 330 332 333 334 335 335 334 332 330 328 326 324 322 320 319 316 312 309 307 305 304 302 299 297 296 294 291 290 289 290 291 293 295 298 300 300 300 298 295 292 286 281 278 277 277 278 277 275 273 272 274 276 275 271 265 260 258 260 265 270 275 279 281 283 284 285 285 286
326 326 327 328 328 329 329 328 326 325 325 324 323 323 322 321 319 316 313 311 308 305 302 300 299 296 293 290 289 289 289 289 290 292 294 296 297 297 296 295 293 290 285 279 275 274 274 274 274 272 271 270 272 273 271 266 261 259 259 262 265 268 272 275 277 280 282 284 286
321 322 323 323 324 324 324 323 322 321 321 321 320 320 320 320 318 316 315 313 310 308 305 303 298 294 290 289 288 288 287 287 288 289 290 291 292 293 294 293 293 291 288 282 276 272 271 271 272 272 271 271 270 269 267 263 259 257 257 258 260 263 266 270 274 277 279 282 284
318 319 320 320 321 321 321 320 320 319 318 317 317 317 316 315 314 313 313 312 311 310 309 306 300 294 291 289 287 286 286 286 287 287 286 287 288 289 290 291 290 289 287 284 278 272 269 268 268 269 270 269 268 267 265 261 257 255 255 256 258 261 264 267 270 273 276 279 281
317 318 319 319 320 320 320 320 320 318 317 315 314 313 312 311 311 311 311 311 311 310 309 307 303 299 295 292 289 287 286 286 286 286 285 285 285 286 286 287 287 287 286 283 280 275 271 267 266 267 267 267 266 266 264 261 256 253 253 254 257 259 262 264 266 268 271 275 279
317 318 319 319 319 320 320 321 321 320 318 316 314 313 311 311 311 311 311 311 310 308 307 305 303 300 297 295 292 290 288 287 287 286 285 284 283 282 282 282 283 284 284 283 280 277 273 270 266 265 265 264 264 264 263 260 256 252 251 251 253 256 258 260 261 263 266 271 276
316 318 318 319 319 320 321 322 322 321 320 318 317 315 314 313 312 312 312 311 310 307 305 303 300 298 296 294 292 290 289 287 286 285 284 283 281 280 279 279 280 282 282 281 280 278 275 272 269 266 264 262 260 260 259 257 255 252 250 250 251 252 255 256 258 260 263 267 272
315 316 317 318 319 320 320 321 322 321 320 319 318 317 316 314 313 312 311 310 309 306 304 302 299 298 296 294 292 291 289 288 286 285 284 282 280 278 277 277 279 280 281 280 279 277 275 273 271 268 265 261 259 257 257 255 252 251 250 250 250 251 252 254 256 258 261 264 268
312 314 315 316 317 318 319 319 319 319 318 316 315 315 315 314 312 311 310 309 307 306 304 303 301 300 298 297 295 293 291 289 288 287 285 283 280 278 276 276 277 279 279 278 277 276 275 273 271 269 265 261 258 256 255 253 251 251 250 250 250 250 250 252 254 257 259 261 264
309 311 313 314 315 315 316 316 316 315 314 313 313 313 312 312 311 311 310 309 308 306 305 305 304 302 300 299 297 294 292 291 289 288 286 283 281 278 277 276 277 277 278 277 276 275 274 272 270 267 264 260 257 256 254 252 251 250 250 249 249 249 249 250 252 254 256 258 261
307 309 310 310 311 312 313 313 312 311 311 311 311 311 312 311 310 310 310 310 307 306 305 305 304 302 301 299 297 295 292 290 289 287 285 283 281 279 277 277 277 277 277 276 275 273 272 270 268 265 261 259 257 256 254 252 251 250 249 249 249 249 250 251 252 253 255 256 259
304 306 307 307 308 309 310 310 309 308 308 309 309 310 310 310 309 309 309 308 306 304 303 303 302 301 301 299 297 295 293 290 288 286 284 283 281 279 278 277 276 277 276 275 273 272 270 268 266 263 259 257 257 256 254 252 250 249 249 249 250 250 251 252 252 253 254 255 258
301 303 304 304 305 305 306 306 306 306 306 306 306 307 307 308 308 308 308 307 305 303 302 301 300 300 299 298 296 294 293 291 289 287 285 283 281 280 278 277 276 276 276 275 272 270 268 267 264 261 257 256 255 255 253 250 249 248 248 248 249 250 251 251 252 252 252 254 256
298 299 300 300 301 301 301 301 302 303 304 303 303 304 305 306 306 306 305 305 304 303 301 300 299 298 298 297 295 294 293 292 290 288 286 284 282 280 278 277 276 276 276 275 272 269 267 265 262 259 255 253 253 253 251 249 246 246 247 247 247 248 249 250 250 250 251 252 255